Погода Ачисай

Погода Ачисай : погода сейчас, прогноз погоды и архив. Всё, что Вы хотите узнать о погоде Ачисай!

Поиск расширенной информации на нашем сайте:

Другие новости

Новости СМИ2

Главная страница сайта

Новости сайта

02.10.2013

Напоминаем, что на нашем новом сайте вы можете получить высокодетализированные прогнозы погоды по пунктам России, СНГ и мира (включающие важные для авиации метеовеличины, такие как направление и скорость ветра, видимость, явления погоды, количество и форма облачности, нижняя и верхняя граница облачности), а также ознакомиться с разнообразными материалами по авиационной метеорологии и подборкой полезных ссылок на эту тему.

Сайт Метеоцентр.Азия посвящён разработке технологий оптимизации авиаметеорологического обслуживания, включая проектирование и перспективное создание нескольких автоматизированных авиаметеорологических систем:
- система выпуска высокодетальных прогностических карт явлений погоды для нижнего воздушного пространства по России и ближнему зарубежью;
- система верификации прогнозов TAF (выпускаемых синоптиками официальных АМСГ РФ и ближнего зарубежья) и AUTOTAF (выпускаемых сайтом Метеоцентр.Азия) - выявление ошибок, онлайн-сопоставление с фактической погодой METAR, автоматическое внесение коррективов в прогнозы при резком отклонении фактической погоды от прогноза, подсчёт оправдываемости прогнозов по элементам и в целом;
- система обработки, анализа и отображения авиаметеорологической информации для применения провайдерами метеорологической информации.

Рекомендуем: Программа учет расходов доходов простая и удобная программа для учета доходов.

Погода Ачисай - сегодня

Время (UTC), дата Ветер
(°,м/с) 
Видим.   Явления Облачность Т
(°С)
Тd
(°С)
f(%) Тe
(°С)
Pmin
(гПа)
dP
(гПа)
Po
(мм)
O2
(г/м3)
Тmin Tmax R s Состояние
почвы
21 21.03.17 320 (СЗ) 20000 м  {ливн. осадки}  10/10 300 м кучево-дожд. 
[Cb cap]
+4.1 +2.6 90 +4  1014.2  0.3  688  273           
00 22.03.17 270 (З) 20000 м  в посл. час ливневой дождь  10/10 600 м кучево-дожд. 
[Cb cap]
+5.1 +3.7 91 +5  1014.8  0.9  689  272           
03 22.03.17 тихо ()   0200 м  туман{ливн. осадки}  ?/?  
+5.9 +5.9 100 +6  1016.7  690  271         
06 22.03.17 270 (З) 0200 м  дождь{ливн. осадки, туман}  ?/?  
+7.5 +7.5 100 +7  1017.7  1.6  692  270  +3       
09 22.03.17 160 (Ю) 20000 м  {дождь, туман}  10/10 300 м 
[St]
+8.7 +7.4 92 +9  1018.2  0.8  692  269           
12 22.03.17 270 (З) 20000 м  {дождь, туман}  ясно 
+9.1 +5.8 80 +10  1017.3  -0.7  692  269           
15 22.03.17 тихо ()   20000 м    ясно 
+6.2 +4.1 86 +6  1019.9  1.3  693  272    +11.4  0.9     
18 22.03.17 320 (СЗ) 20000 м    ясно 
+8.6 +3 68 +9  1017.9  -1  692  270    +11.4  0.9     
21 22.03.17 320 (СЗ) 20000 м    ясно 
+9.2 +4.6 73 +9  1017.8  0.1  692  269           
00 23.03.17 320 (СЗ) 20000 м    10/10 1000 м 
[Sc]
+8.8 +4.3 73 +9  1018.4  0.4  692  269           
03 23.03.17 180 (Ю) 20000 м    10/10 600 м кучево-дожд. 
[Cb cap]
+7.7 +5 83 +8  1020.7  1.8  694  271           
09 23.03.17 160 (Ю) 20000 м    10/10 300 м кучево-дожд. 
[Cb cap]
+10.8 +8.5 86 +11  1019.3  0.2  694  267           
12 23.03.17 110 (В) 20000 м    8/6 600 м кучево-дожд., верхняя 
[Cb cap|Ci sp]
+12.3 +8 75 +12  1019.6  0.7  694  266           
15 23.03.17 140 (ЮВ) 20000 м    10/0 верхняя 
[Ci sp]
+10.8 +4.8 66 +12  1020.6  0.4  694  268    +13  0.9     
18 23.03.17 290 (З) 20000 м    ясно 
+9.1 +4.3 72 +9  1021  -0.2  694  270    +13  0.9     
21 23.03.17 320 (СЗ) 4000 м  слаб. ливневой дождь  10/10 600 м кучево-дожд. 
[Cb cap]
+8.3 +4 74 +8  1021.3  694  271           
00 24.03.17 320 (СЗ) 20000 м  {ливн. осадки}  3/3 600 м кучево-дожд. 
[Cb cap]
+6.2 +3.8 85 +7  1020.1  -1.8  693  272           
03 24.03.17 320 (СЗ) 20000 м    10/10 600 м кучево-дожд. 
[Cb cap]
+7.4 +4.6 82 +7  1019.8  0.1  693  271         
06 24.03.17 360 (С) 20000 м    10/8 600 м верхняя 
[Sc|Ci sp]
+12.9 +6.2 64 +14  1016.9  -0.8  692  265  +5.9       
09 24.03.17 270 (З) 20000 м    10/10 600 м кучево-дожд. 
[Cb cap]
+14 +5 55 +15  1014.8  -1.6  691  264           
12 24.03.17 230 (ЮЗ) 20000 м    10/10 600 м кучево-дожд. 
[Cb cap]
+9 +5.9 81 +9  1016.8  0.3  691  269           
15 24.03.17 тихо ()   2000 м  ливневой дождь  10/10 600 м кучево-дожд. 
[Cb cap]
+6.6 +5 90 +7  1020  693  272    +14.2  0.4     
18 24.03.17 тихо ()   4000 м  слаб. ливневой дождь  10/10 600 м кучево-дожд. 
[Cb cap]
+5.8 +4.2 89 +6  1020.5  0.3  693  273    +14.2  0.4     
21 24.03.17 тихо ()   20000 м  {ливн. осадки}  10/10 600 м кучево-дожд. 
[Cb cap]
+5.4 +3.2 86 +5  1020.6  -0.1  693  273           
00 25.03.17 тихо ()   4000 м  слаб. морось{ливн. осадки}  10/10 300 м 
[St]
+4.8 +3.6 92 +5  1020.8  693  274           
Время (UTC), дата Ветер
(°,м/с) 
Видим.   Явления Облачность Т
(°С)
Тd
(°С)
f(%) Тe
(°С)
Pmin
(гПа)
dP
(гПа)
Po
(мм)
O2
(г/м3)
Тmin Tmax R s Состояние
почвы

Для получения пояснительной информации подведите курсор к названию столбца.

ПОГОДА Ачисай - архив

Всё, что Вы хотите узнать о погоде Ачисай - удобно и подробно!

Выберите нужную дату (начиная с 1 января 2015* года) и нажмите кнопку "Найти".
Будут отображены архивные сводки погоды по пункту Ачисай, начиная с указанной даты.


Отображать данные в формате CSV (для использования в таблицах Excel)


Внимание! Наш архив погоды предназначен исключительно для личного некоммерческого использования в познавательных целях. Если Вам необходимы официальные справки о состоянии погоды (для производственных, юридических, коммерческих и т.п. целей), обращайтесь в органы Росгидромета.

*Примечание: данная дата относится к архиву по метеостанциям СССР (Россия, СНГ, Балтия).
Архив по метеостанциям Зарубежной Европы и Азии (кроме Китая) хранится 10 дней, по другим регионам земного шара (Китай, Африка, Америка, Австралия, Океания) - 1 день.

Ачисай - район местоположения метеостанции


Название, широта, долгота, высота метеостанции:
Ачисай 43.6°ш. 68.9°д. 822 м над ур. моря [Казахстан]

Дополнительная информация

В oтличие oт бoльшинства пoгoдных сайтoв мы публикуем пoдрoбную метеoинфoрмацию в детальнoм прoфессиoнальнoм фoрмате.

Характеристики температуры и влажнoсти вoздуха измеряются на высoте 2 м в тени вдали oт зданий и деревьев.
Скoрoсть ветра измеряется на высoте 10 м (на урoвне рoста челoвека скoрoсть ветра ниже в 1.5-2 раза). Если метеoстанция нахoдится в гoрoде или в лесу, тo скoрoсть ветра занижена на 2-4 м/с пo сравнению с oткрытым местoм. Скoрoсть ветра над акватoриями крупных рек и oзёр, а также на вершинах хoлмoв на 2-5 м/с выше, чем в oбычных услoвиях.
Атмoсфернoе давление в разных тoчках местнoсти мoжет значительнo oтличаться oт давления на метеoстанции, в зависимoсти oт услoвий рельефа (при пoдъёме на 10 м давление пoнижается примернo на 1 мм рт.ст.).